Terminal Aerodrome Forecast
Issued by NWS Cleveland, OH

Home | Current Version | Previous Version | Graphics & Text | Print | Product List | Glossary On
Versions: 1 2 3 4 5 6 7 8 9 10 11 12 13 14 15 16 17 18 19 20 21 22 23 24 25 26
000
FTUS41 KCLE 261000 AAA
TAFCAK
TAF AMD
KCAK 261032Z 2611/2706 06004KT P6SM SCT025 OVC100
      TEMPO 2612/2616 BKN025=

USA.gov is the U.S. government's official web portal to all federal, state and local government web resources and services.